CZ-4 DEB, 35327

Orbit data source: Space-Track

CZ-4 DEB, 35327 is space debris in SSO originally from a launch on Thu, 14 Oct 1999 UTC launched from the Taiyaun Space Center, China (TSC). Debris objects in space refer to the collection of defunct objects orbiting the Earth. Examples of debris include non-operational satellites, rocket bodies, and fragments generated from explosions, collisions, or faulty payload assembly.

Loading next visibility...
Identifier
35327, 1999-057SF
Orbit
SSO
Country
Flag of CNCN / PRC
Related business
Manufacturer
Unknown
Mission
Spacecraft
Bus & Motor
Unknown
Mass
Unknown
Launch date (UTC)
1999-10-14 (26 years ago)
Launch vehicle
Unknown
Launch site
Taiyaun Space Center, China (TSC)
Object type
Payload
Rocket body
Debris
Shape & HBR
Unknown shape, 0.1 m
Radar Cross Section
Small (<0.1 m²)

Expand to show TLE details & history
Last TLE update: 2 weeks ago

TLE from 2 weeks ago
0 CZ-4 DEB
1 35327U 99057SF  26023.98119091  .00009427  00000-0  18045-2 0  9993
2 35327  98.4694 110.6355 0073741 201.3835 158.4281 14.62303067692252
Epoch: 2026-01-23T23:32Z
TLE epoch observation values (Epoch: 2026-01-23T23:32:54.894Z)
Latitude
0.00003°
Longitude
-5.90544°
Altitude
737.23 km
Speed
7.461 km/s
True Right ascension
07h 22m 32s
True Declination
0° 00' 00"
Sunlit
Object was in full shadow at epoch
Visualization orbit readout
Latitude
Unknown
Longitude
Unknown
Altitude
Unknown
Speed
Unknown
Apparent Right ascension
Unknown
Apparent Declination
Unknown
Sunlit
N/A
Visualization observer readout
Local Sidereal Time
02:51:03
Azimuth
Unknown
Elevation
Unknown
Doppler factor
Unknown
Orbital elements
Apogee altitude
734.906 km
Perigee altitude
630.77 km
Semi-major axis
7,060.975 km
Eccentricity
0.00737
Inclination
98.4694°
RAAN
110.6355°
Arg. of periapsis
201.3835°
True anomaly
158.73614°
Mean anomaly
158.4281°
Eccentric anomaly
158.58238°
Mean motion
3.65802 °/min
Orbital period
98.41 mins
BSTAR
0.0018045
Loading maneuver chart data...
Computing Atmospheric mass density...
Loading historical data...
Loading historical data...
Loading historical data...
Loading historical data...
Loading historical data...
Loading historical data...
Loading historical data...

Documentation

Showing up to 5 results
|